TimeCST,TemperatureF,Dew PointF,Humidity,Sea Level PressureIn,VisibilityMPH,Wind Direction,Wind SpeedMPH,Gust SpeedMPH,PrecipitationIn,Events,Conditions,WindDirDegrees,DateUTC
12:53 AM,30.0,19.9,66,30.37,10.0,North,3.5,-,N/A,,Overcast,350,2013-03-02 06:53:00
1:53 AM,30.0,19.9,66,30.37,10.0,NNW,6.9,-,N/A,,Overcast,340,2013-03-02 07:53:00
2:53 AM,30.0,19.9,66,30.36,10.0,Variable,5.8,-,N/A,,Overcast,0,2013-03-02 08:53:00
3:53 AM,28.0,19.0,69,30.36,10.0,Variable,4.6,-,N/A,,Mostly Cloudy,0,2013-03-02 09:53:00
4:53 AM,25.0,19.0,78,30.37,10.0,Calm,Calm,-,N/A,,Clear,0,2013-03-02 10:53:00
6:53 AM,21.0,18.0,88,30.40,10.0,Calm,Calm,-,N/A,,Clear,0,2013-03-02 12:53:00
7:53 AM,25.0,19.9,81,30.42,10.0,Calm,Calm,-,N/A,,Partly Cloudy,0,2013-03-02 13:53:00
8:53 AM,28.9,19.9,69,30.43,10.0,Calm,Calm,-,N/A,,Clear,0,2013-03-02 14:53:00
9:53 AM,32.0,18.0,56,30.41,10.0,Variable,6.9,-,N/A,,Clear,0,2013-03-02 15:53:00
10:53 AM,34.0,19.0,54,30.40,10.0,North,10.4,-,N/A,,Clear,10,2013-03-02 16:53:00
11:53 AM,37.9,19.9,48,30.38,10.0,Variable,5.8,-,N/A,,Clear,0,2013-03-02 17:53:00
12:53 PM,41.0,19.9,43,30.34,10.0,North,5.8,-,N/A,,Clear,10,2013-03-02 18:53:00
1:53 PM,43.0,18.0,37,30.32,10.0,Variable,3.5,-,N/A,,Clear,0,2013-03-02 19:53:00
2:53 PM,45.0,17.1,33,30.30,10.0,NNE,4.6,-,N/A,,Clear,20,2013-03-02 20:53:00
3:53 PM,46.0,19.0,34,30.29,10.0,Variable,5.8,-,N/A,,Clear,0,2013-03-02 21:53:00
4:53 PM,45.0,18.0,34,30.28,10.0,North,6.9,-,N/A,,Clear,360,2013-03-02 22:53:00
5:53 PM,44.1,19.0,37,30.27,10.0,Calm,Calm,-,N/A,,Clear,0,2013-03-02 23:53:00
7:53 PM,33.1,21.0,61,30.27,10.0,Calm,Calm,-,N/A,,Clear,0,2013-03-03 01:53:00
8:53 PM,27.0,21.9,81,30.27,10.0,Calm,Calm,-,N/A,,Clear,0,2013-03-03 02:53:00
9:53 PM,26.1,21.0,81,30.26,10.0,Calm,Calm,-,N/A,,Clear,0,2013-03-03 03:53:00
10:53 PM,26.1,23.0,88,30.24,10.0,Calm,Calm,-,N/A,,Clear,0,2013-03-03 04:53:00
11:53 PM,25.0,21.9,88,30.22,10.0,Calm,Calm,-,N/A,,Clear,0,2013-03-03 05:53:00